Wind_Speed
27 27 26 26 26 27 27 26 26 27 28 27 26 25 24 24 24 24 25 24 24 24 23 23 24 24 25 26 27 28 29 27 26 25 25 25 25 25 26 26 27 29 30 30 31 31 31 32 33 34 34 35 36 38 38 39 40 41 41 41 41 42 42 43 43 42 38 32 26 21 18 18 21 23 27 31 33 37 40 42 43 45 45 46 46
28 27 26 25 26 27 27 28 29 30 29 28 27 26 25 25 26 26 26 25 25 25 25 25 26 26 27 27 28 29 30 30 29 27 26 27 27 27 28 28 29 30 31 32 32 32 32 33 34 35 36 37 38 39 41 41 42 42 42 42 43 43 43 43 43 43 40 35 29 25 21 19 20 22 25 29 32 35 39 42 44 45 46 46 46
27 26 26 27 27 27 28 29 30 31 31 30 28 27 27 27 27 27 27 27 27 27 28 28 28 28 28 29 29 30 31 31 31 29 28 29 29 29 29 30 30 31 32 34 34 34 34 34 35 36 37 38 39 40 42 43 44 44 44 43 44 44 44 44 44 43 41 37 32 28 24 21 21 23 25 28 32 35 38 41 44 46 47 47 46
27 27 28 28 28 28 29 30 31 31 31 30 28 28 28 28 28 28 28 29 29 29 29 30 30 30 30 30 30 30 30 31 31 31 31 31 31 31 31 31 32 32 33 35 36 36 36 36 36 37 38 39 40 41 43 44 45 46 46 45 44 45 45 45 45 44 42 39 34 30 27 24 23 23 25 27 31 35 38 41 44 47 48 48 47
30 30 30 29 29 30 31 32 32 31 30 29 29 29 29 29 29 30 30 31 31 31 31 31 31 31 31 31 31 31 31 31 32 33 33 33 33 33 33 33 34 34 35 36 38 38 38 38 38 38 39 40 41 43 44 46 47 47 47 47 46 46 46 46 46 45 43 40 35 31 28 27 26 25 25 27 31 34 37 40 44 47 48 49 48
33 33 32 31 31 33 33 33 33 31 30 29 30 30 30 30 31 31 32 32 33 32 32 33 33 33 33 33 33 32 32 33 34 34 34 35 35 36 36 36 36 37 38 38 39 40 40 40 40 40 41 42 43 44 46 48 49 49 49 49 48 47 47 46 46 46 44 40 36 31 28 27 28 27 27 28 30 34 37 40 43 47 48 49 48
36 36 34 33 34 35 35 34 33 32 31 31 32 32 32 32 32 33 34 34 34 34 34 34 34 35 34 34 34 34 34 34 35 36 36 37 38 38 39 39 39 39 40 41 41 42 42 42 42 43 44 44 45 46 48 49 50 51 51 51 51 50 49 48 47 46 44 41 37 32 28 27 27 28 28 28 30 34 37 39 42 46 48 49 49
39 38 36 36 37 37 36 34 33 32 32 33 34 34 34 34 34 35 35 36 37 37 37 37 37 37 36 36 36 36 36 36 37 38 38 39 40 40 41 41 42 42 42 43 44 44 45 44 45 45 46 47 48 48 50 51 52 52 53 53 52 52 51 50 48 47 45 42 38 33 29 27 27 28 28 28 30 33 35 38 41 45 48 49 49
40 40 39 38 39 38 36 34 34 33 33 35 35 35 35 36 36 37 37 38 38 38 38 38 39 38 38 38 38 38 38 39 39 40 41 41 42 42 43 43 44 44 45 45 46 47 47 47 47 48 49 50 50 51 52 53 54 54 54 54 54 53 52 51 49 47 45 42 38 35 31 29 27 27 28 28 29 32 35 37 41 45 48 48 48
42 42 41 41 40 38 37 36 35 35 35 36 37 37 37 37 37 38 38 38 39 39 39 39 39 39 39 39 39 40 41 42 42 43 43 44 44 44 44 44 45 47 47 48 49 49 50 50 50 50 51 52 53 54 54 55 56 56 56 56 55 54 53 52 50 48 45 42 38 35 33 31 28 27 27 26 28 31 34 37 40 45 48 49 48
43 43 43 41 40 39 38 38 37 37 37 38 38 38 38 38 38 38 38 39 39 39 40 40 40 40 41 41 42 43 44 45 45 45 45 46 46 46 46 47 47 49 50 51 52 52 53 53 53 54 54 55 56 56 57 57 58 58 57 57 57 56 53 52 51 48 45 41 38 36 35 33 30 28 27 26 27 31 34 36 40 45 49 50 49
42 42 42 41 41 40 40 39 39 40 40 40 40 40 39 39 40 40 40 40 40 41 42 42 43 43 43 44 45 46 47 47 48 48 48 48 48 49 49 50 51 52 53 55 56 56 56 56 56 57 57 58 59 59 59 59 59 58 58 57 57 56 53 52 51 48 43 40 38 36 35 34 31 29 27 26 28 31 35 37 41 46 51 52 51
43 43 42 42 43 43 42 41 42 43 43 43 43 42 42 43 43 43 43 43 44 44 45 45 45 46 46 46 47 48 49 50 50 50 51 51 51 51 52 54 54 55 56 58 59 59 59 59 60 60 60 61 61 61 60 60 59 58 58 57 57 56 53 51 50 46 41 39 37 36 36 35 33 30 28 27 28 32 36 38 42 47 52 53 52
46 46 46 46 47 46 45 44 45 45 45 45 45 45 45 46 46 46 46 46 46 47 47 48 48 48 48 49 50 51 52 52 53 53 54 54 54 55 56 57 58 59 60 61 61 62 62 62 62 62 61 62 62 61 60 60 58 57 56 57 56 55 52 49 47 43 39 37 36 36 37 36 34 31 29 29 29 32 36 40 43 48 53 54 54
48 49 49 49 49 48 47 47 47 47 47 47 47 47 48 48 49 49 49 48 49 49 50 51 51 51 51 52 53 54 54 55 56 57 58 58 58 59 59 60 61 61 62 62 62 62 62 62 62 61 60 60 61 60 58 57 56 55 55 55 55 52 49 46 43 40 37 37 36 36 37 36 35 33 31 30 31 33 37 41 44 49 54 55 55
51 51 50 50 50 50 49 49 49 49 49 49 50 50 51 52 52 52 51 52 52 53 53 54 55 55 55 55 55 56 57 57 58 59 60 60 60 60 59 59 59 59 59 59 59 59 59 58 58 58 57 57 57 58 55 53 53 53 52 52 52 49 46 43 40 37 36 36 36 36 36 36 36 35 33 32 32 33 37 41 45 50 55 56 56
53 53 53 52 52 52 52 52 52 52 52 53 54 55 55 55 54 54 54 55 55 56 56 56 56 56 56 56 55 55 55 55 56 57 58 58 57 56 55 54 53 53 54 54 54 54 54 54 54 54 54 54 54 55 52 48 48 49 48 49 48 44 42 40 37 35 34 34 35 36 35 36 36 36 35 34 33 34 38 42 46 52 56 57 58
56 56 55 55 54 54 55 55 54 54 55 55 56 56 55 55 54 54 54 53 53 53 53 53 52 52 51 51 51 51 51 51 51 52 52 52 52 51 49 48 48 49 49 49 50 50 51 52 52 51 51 51 51 53 51 45 44 43 42 44 44 42 39 37 35 34 33 32 33 35 34 35 36 36 37 36 35 36 39 43 48 53 57 58 58
56 56 55 54 54 54 53 53 52 51 51 51 51 51 50 50 50 49 49 48 48 48 48 47 47 47 46 46 46 46 47 47 47 48 48 49 49 48 47 46 47 47 47 46 47 48 49 50 51 51 50 49 48 50 49 44 39 35 35 38 42 41 37 33 33 34 33 31 31 32 32 32 33 35 37 37 36 37 40 44 49 55 58 58 58
51 51 50 49 49 49 48 46 46 45 45 45 45 45 45 45 45 45 44 44 43 44 44 44 43 44 44 44 44 44 45 44 44 45 46 46 47 47 46 46 47 48 47 45 46 48 49 49 50 51 50 48 47 48 48 43 36 29 30 35 39 39 34 31 32 34 34 32 30 30 31 31 31 33 36 37 38 39 41 46 51 56 59 58 58
44 44 44 43 43 43 43 42 42 42 42 42 42 42 42 42 42 42 41 41 41 42 42 42 42 43 43 43 43 44 44 43 43 44 46 46 46 46 46 46 47 47 47 46 47 48 49 49 48 49 49 48 47 46 44 41 34 29 30 35 37 35 31 29 32 34 34 32 30 30 30 31 31 33 35 37 38 39 42 47 52 57 59 59 59
40 40 40 40 40 40 40 40 40 40 40 40 40 40 40 41 41 41 41 41 41 42 42 42 42 43 43 44 44 44 44 44 44 45 47 46 46 46 46 46 46 46 46 47 48 48 48 48 46 46 48 47 46 43 40 37 33 30 32 36 36 33 29 27 30 33 33 32 31 31 31 31 32 34 35 36 37 39 44 50 55 58 59 59 60
39 39 39 39 39 39 39 38 39 39 38 38 38 39 39 39 40 41 41 41 41 42 43 43 42 43 44 44 45 46 46 45 44 46 48 48 47 47 47 46 47 48 47 48 49 49 48 46 44 44 45 44 43 41 37 33 31 32 35 37 36 33 30 28 30 33 33 32 33 33 33 31 32 34 34 35 37 41 48 54 57 58 59 60 63
38 39 39 39 38 38 38 39 39 39 39 39 39 40 40 40 40 41 41 42 42 42 43 43 43 43 45 46 47 48 48 47 46 48 50 50 49 48 48 48 48 50 50 50 52 51 50 47 42 41 42 41 40 38 33 28 29 32 35 36 36 35 33 31 32 34 34 33 33 34 34 32 32 34 35 36 38 44 51 56 56 57 59 61 65
40 41 41 41 41 41 41 42 42 42 42 42 42 43 43 43 42 42 43 43 43 44 44 44 44 45 46 48 49 50 50 50 50 51 52 52 52 51 51 50 50 51 51 52 54 53 51 46 41 37 36 36 35 34 30 27 27 30 31 34 36 38 37 35 34 35 36 35 35 35 35 35 35 37 38 39 41 47 53 56 56 57 60 63 67
44 44 45 45 45 45 46 46 46 46 46 46 46 46 46 46 46 45 45 45 45 46 46 47 47 47 48 50 51 52 52 53 53 54 54 54 54 54 53 52 53 54 53 54 56 55 49 43 35 29 29 32 35 38 40 40 40 40 39 40 40 39 39 38 36 37 39 38 37 37 38 39 41 44 44 43 44 49 54 56 57 59 62 65 68
48 48 48 49 49 50 50 50 50 51 51 50 50 49 49 49 49 48 48 47 47 47 47 48 48 48 49 51 51 53 53 54 55 57 56 54 55 56 55 54 54 55 56 57 59 56 47 36 26 21 27 37 45 51 55 55 54 53 51 50 48 46 44 42 39 38 40 42 41 42 43 45 47 50 50 49 49 51 54 57 59 61 63 66 69
51 52 52 52 52 53 53 53 54 54 54 53 52 52 52 52 52 51 51 51 50 50 50 50 50 50 50 51 52 53 54 55 56 58 57 55 55 56 57 56 55 56 56 59 61 57 45 35 29 29 39 50 56 59 61 62 62 60 56 54 54 53 50 46 43 41 43 45 46 47 50 52 52 52 52 53 53 53 55 58 61 63 65 68 70
55 55 55 55 55 55 56 56 56 56 56 55 54 55 55 56 55 54 54 55 55 54 54 54 53 53 53 53 53 54 55 56 57 58 58 57 56 56 56 56 55 55 56 60 61 57 49 43 42 44 50 55 58 59 61 65 66 64 59 56 55 53 50 49 49 48 48 50 51 52 55 56 52 51 54 56 55 54 56 58 61 63 66 68 71
58 58 58 58 58 58 58 58 58 58 57 56 56 57 58 58 58 58 58 58 58 58 58 58 58 57 57 57 57 56 56 57 59 60 60 60 59 57 56 55 55 54 56 60 61 58 55 54 53 50 51 55 60 61 61 64 67 66 62 58 55 53 52 52 53 52 50 50 51 53 55 55 52 52 55 56 55 54 56 58 60 63 66 68 70
60 60 60 60 61 60 60 60 60 60 60 59 59 60 60 60 61 61 61 61 62 61 62 61 61 61 61 60 60 60 60 60 62 63 64 63 62 60 57 55 54 54 57 61 62 60 60 62 58 52 51 56 62 63 62 63 65 66 63 59 55 52 50 50 51 51 48 48 50 51 52 53 52 52 54 56 55 53 53 55 59 63 65 67 69
62 62 62 63 63 63 63 63 63 63 63 62 62 62 62 63 64 64 64 65 64 64 65 65 65 65 64 63 63 63 63 64 65 66 67 67 66 65 62 59 57 56 58 61 62 62 65 67 62 53 51 53 56 56 56 57 59 62 62 57 51 47 46 49 52 52 51 52 50 47 47 49 50 51 54 56 54 51 50 52 58 62 65 66 69
64 64 64 65 65 65 65 65 65 65 66 66 66 66 66 66 66 67 68 68 68 68 68 68 68 67 67 66 66 66 67 67 67 68 68 67 66 65 64 62 62 62 61 62 62 62 66 69 65 57 52 51 49 47 48 51 54 58 58 54 50 49 52 54 53 52 53 53 47 43 46 49 49 51 54 54 51 49 50 52 58 63 65 66 69
66 67 67 67 67 67 68 68 68 68 69 69 69 69 69 69 70 70 70 71 71 71 71 71 71 70 69 69 70 70 70 70 68 67 66 64 61 61 61 61 62 65 65 64 64 63 64 67 66 59 52 50 48 46 45 45 46 48 50 52 53 54 52 49 48 49 50 47 44 45 51 54 52 52 54 52 50 52 54 55 59 63 65 66 68
70 70 70 70 70 70 71 71 71 72 72 72 72 72 73 73 73 73 74 74 74 74 74 73 73 72 72 72 73 74 73 70 68 65 62 60 60 62 63 63 62 64 65 65 66 65 65 65 63 56 49 47 47 45 44 45 44 43 44 46 49 49 47 47 50 50 45 42 45 49 53 54 53 52 51 50 51 54 57 58 61 63 65 66 68
72 72 73 73 73 73 73 74 74 74 75 75 75 75 76 76 76 76 77 77 77 76 75 75 74 73 73 74 74 73 69 66 64 63 61 62 64 67 68 66 63 61 62 63 66 67 66 65 64 58 49 45 45 43 43 44 42 37 38 43 47 51 55 59 58 51 45 45 49 51 51 51 52 52 50 50 52 55 57 60 62 63 65 66 68
74 75 75 75 75 75 75 76 76 77 77 77 77 78 78 79 79 80 80 80 80 78 77 76 75 73 72 71 68 65 62 61 61 61 61 63 67 69 69 67 61 58 58 61 64 67 67 66 67 63 53 45 43 43 43 43 41 39 43 51 53 55 60 64 59 52 50 51 54 54 53 52 51 51 52 54 55 57 59 62 64 65 66 67 69
76 76 77 76 77 77 77 78 78 78 79 79 79 80 81 81 81 82 82 81 80 79 77 76 74 71 68 65 62 59 58 58 60 61 62 65 68 69 69 64 57 54 57 60 63 66 67 67 66 61 52 46 46 46 45 47 52 56 58 58 58 57 59 60 58 53 52 53 54 55 56 55 53 53 54 56 58 61 63 65 66 67 67 68 70
78 78 78 78 79 79 79 79 80 81 82 82 82 82 82 82 82 82 82 81 80 78 76 73 70 67 65 62 60 59 59 60 62 63 65 68 69 69 66 59 52 52 56 59 62 65 64 61 58 53 48 46 48 49 46 45 52 60 62 59 57 56 55 58 60 57 55 54 53 53 55 56 55 55 56 58 60 64 66 67 69 69 68 68 70
80 80 80 80 81 81 81 81 82 83 84 84 84 83 83 82 83 83 82 80 78 74 71 68 65 64 62 61 61 63 64 66 67 67 67 69 69 65 61 55 50 51 55 58 60 61 57 51 47 46 44 43 46 48 47 43 42 49 56 58 58 57 58 63 66 62 57 57 57 57 58 59 58 58 58 60 62 65 68 70 70 69 68 69 72
82 82 82 82 82 82 83 83 84 85 85 85 85 84 84 83 83 81 79 76 73 69 66 64 63 63 63 63 66 69 70 70 70 69 69 69 66 60 56 52 49 51 54 55 55 55 49 40 37 39 37 36 38 44 46 41 36 40 48 53 57 61 64 68 68 64 60 60 61 62 62 61 59 59 59 60 63 66 70 71 71 70 69 71 74
84 84 84 85 84 84 85 85 85 85 85 85 84 84 83 82 81 79 77 75 72 68 67 66 66 66 68 70 73 73 72 71 71 70 70 68 62 56 53 49 48 52 54 52 50 50 44 37 36 38 35 31 31 34 37 36 35 40 47 52 56 61 65 67 67 65 64 63 63 63 62 59 58 58 59 61 65 68 71 73 73 71 71 73 75
85 86 86 87 87 86 86 86 86 85 85 84 84 84 84 83 83 81 80 78 75 73 72 72 73 74 76 76 76 75 73 73 73 72 71 67 60 54 50 47 48 53 54 50 45 45 44 41 38 34 31 28 25 25 28 33 38 44 51 54 54 56 60 63 64 63 62 62 62 61 59 57 57 59 61 64 67 70 73 75 75 74 74 76 76
87 88 89 90 89 89 88 87 86 85 84 84 84 85 86 86 85 84 83 81 80 79 79 79 80 81 80 79 78 76 75 74 74 73 70 66 59 54 49 47 49 52 52 47 42 40 42 42 36 27 23 24 24 24 27 31 34 40 46 49 49 50 53 56 58 58 57 57 58 58 58 58 60 62 65 67 70 73 76 77 77 77 77 77 76
85 86 87 87 87 87 88 88 87 86 86 86 87 87 88 88 87 86 85 84 84 85 85 86 86 84 82 80 79 78 76 75 74 72 68 63 58 54 49 47 50 51 50 47 43 39 40 41 36 25 17 16 16 17 21 27 32 37 41 44 45 46 48 51 54 56 56 56 57 58 60 61 62 64 67 70 73 76 77 78 78 78 77 76 75
84 85 85 85 85 85 87 88 88 88 88 89 89 89 90 89 88 87 87 87 88 90 90 90 89 86 83 81 80 78 76 75 73 70 65 59 56 54 50 48 50 51 50 47 43 38 38 40 37 27 19 17 19 24 30 36 42 48 51 48 47 49 50 51 53 55 56 58 59 60 61 62 65 67 70 73 75 77 78 78 79 78 77 76 75
89 89 88 87 87 88 88 89 89 89 90 90 90 91 90 90 90 90 90 91 92 92 92 91 90 88 85 83 81 79 76 74 70 67 62 57 53 52 50 49 49 50 51 49 43 38 38 41 38 33 31 32 35 40 47 53 60 62 61 57 56 56 56 54 55 56 56 57 59 60 62 65 68 70 72 74 76 77 77 78 77 76 75 75 76
93 91 90 88 88 88 89 88 88 87 88 89 89 90 90 90 91 91 92 92 92 92 91 90 90 90 88 86 83 81 77 72 67 63 60 55 51 50 49 48 48 49 51 51 46 42 42 44 43 41 42 44 48 54 60 65 68 68 66 63 62 62 60 58 58 58 58 58 60 62 65 68 70 72 73 74 75 76 76 76 75 75 75 75 77
95 93 93 92 91 91 91 90 89 89 89 90 90 91 92 92 92 92 91 90 90 90 89 89 90 90 90 88 86 84 80 73 65 61 60 56 52 50 49 48 48 49 51 52 51 48 47 49 49 49 50 54 60 63 64 63 64 65 66 66 66 64 62 61 61 61 61 62 63 66 68 70 71 72 72 73 74 75 75 75 75 75 76 77 79
92 92 92 92 92 92 93 93 94 94 94 94 94 94 94 93 93 92 90 89 89 89 89 90 90 91 92 91 89 87 84 76 67 62 61 59 55 53 51 50 49 50 52 54 55 53 52 55 57 57 57 63 70 70 66 63 62 63 65 66 66 65 64 64 64 64 65 67 68 69 70 71 72 72 73 73 74 75 75 76 76 77 78 79 81
90 91 91 92 92 93 93 93 93 93 94 94 94 93 93 93 92 92 91 91 91 91 92 92 92 93 93 92 91 90 87 81 73 66 63 62 59 56 55 54 52 51 53 56 58 58 57 59 63 65 66 70 75 76 72 68 66 67 69 69 69 67 67 67 68 69 70 71 71 72 72 72 73 73 73 74 74 75 76 77 78 79 79 81 83
Wind_Direction
225 230 234 238 242 245 247 247 247 247 249 251 255 258 261 263 266 268 269 270 271 272 274 278 282 286 290 293 296 298 299 298 299 300 303 306 309 312 314 315 316 316 316 316 318 322 325 327 328 329 330 331 332 333 335 336 337 337 338 339 338 338 339 340 340 339 338 337 330 316 314 330 346 353 357 359 359 360 2 4 5 6 5 2 360
224 227 231 235 239 242 244 245 245 246 247 250 253 256 259 261 263 265 267 270 271 273 275 279 282 284 287 289 292 295 296 296 296 298 300 302 305 308 311 313 314 314 314 314 316 319 322 323 324 325 327 328 329 330 331 332 333 334 335 335 335 335 335 337 338 336 335 334 330 320 309 314 329 340 349 353 354 356 358 359 0 2 1 360 358
230 232 234 237 239 241 244 244 244 245 246 248 250 252 254 256 258 261 265 268 271 273 276 278 280 282 283 286 288 290 292 294 295 296 298 300 302 306 309 310 311 311 311 312 313 315 318 320 320 322 323 325 326 327 327 328 330 331 331 331 332 332 333 334 335 335 333 331 328 322 311 306 316 328 339 347 349 351 354 355 357 358 358 357 357
236 238 239 241 243 244 245 244 244 244 244 246 248 250 252 253 256 259 263 266 269 271 274 276 278 280 282 283 285 287 288 291 292 294 296 298 301 304 307 308 309 309 309 310 311 313 315 317 318 319 320 321 322 323 324 324 325 327 327 328 328 329 330 331 332 332 331 328 326 322 314 304 305 316 330 340 345 347 350 353 354 355 355 354 354
240 241 242 244 246 246 246 246 245 244 244 245 246 248 250 253 255 259 262 264 266 268 271 274 276 278 280 281 282 284 286 288 289 291 293 296 299 302 304 305 306 306 307 308 309 311 312 314 315 316 317 318 319 320 320 321 322 323 324 324 324 326 327 328 329 329 328 326 324 321 315 306 300 306 319 331 339 343 346 350 352 352 352 351 352
240 241 242 244 246 247 248 247 247 246 245 245 246 247 249 252 255 258 261 263 266 268 270 272 274 277 278 280 282 284 285 286 287 289 292 295 298 300 302 302 303 303 305 306 307 308 310 311 312 313 314 315 315 317 317 317 319 320 320 321 321 322 324 325 326 327 326 324 321 318 314 306 299 300 310 322 333 339 342 346 349 350 349 349 349
240 241 241 243 245 247 247 247 248 247 247 247 248 249 250 253 256 258 261 264 266 268 270 272 274 276 278 280 282 283 284 284 286 288 291 294 296 298 300 300 301 302 303 304 305 306 307 308 310 310 311 311 312 313 314 314 315 317 317 318 319 320 321 322 324 324 323 321 318 315 312 306 297 295 301 313 327 335 339 343 346 347 346 346 347
241 243 243 243 246 247 248 249 250 250 250 251 251 253 255 257 258 261 263 265 267 269 271 273 275 277 279 280 281 282 283 284 286 288 291 293 295 297 298 299 300 300 301 302 303 304 305 306 307 307 307 309 310 310 311 311 312 314 315 315 316 317 319 320 321 322 321 318 315 312 310 305 297 292 294 304 319 330 336 340 344 345 344 344 344
243 245 246 246 247 248 250 252 253 254 254 254 255 257 258 260 262 264 267 268 270 272 273 275 277 278 280 281 282 283 284 285 287 289 291 292 293 295 296 297 298 299 300 301 301 302 302 303 304 304 305 306 307 308 308 309 310 311 312 313 314 315 316 317 318 319 318 315 311 308 307 305 299 293 291 296 312 326 332 337 341 343 343 342 342
243 245 247 247 248 250 251 253 254 255 255 256 257 258 260 262 264 266 268 270 271 273 275 276 278 279 281 282 283 283 284 285 286 288 289 291 292 293 294 296 297 298 298 299 299 299 300 301 302 303 303 304 305 305 306 306 307 309 310 311 312 314 314 314 315 316 314 311 307 304 304 305 302 296 291 293 306 321 329 334 339 341 341 341 341
242 244 246 248 249 250 251 253 255 255 256 257 258 259 260 262 264 266 268 270 271 273 274 275 277 278 280 281 282 282 283 284 285 287 288 289 290 292 293 294 295 295 296 297 297 297 298 300 300 301 301 302 302 302 303 304 305 307 308 309 311 311 312 312 313 313 310 307 304 301 301 303 303 298 293 291 302 317 326 331 336 339 339 340 340
245 246 248 249 250 251 252 253 255 256 256 258 259 260 261 262 264 265 267 269 270 271 272 273 275 277 278 279 280 281 282 284 285 286 287 288 290 291 292 292 293 293 294 294 295 296 297 298 299 299 299 299 299 300 301 302 303 305 306 308 309 309 310 310 310 310 307 303 300 298 299 301 302 299 293 291 300 314 323 329 334 337 338 339 340
246 248 249 251 251 252 253 253 255 257 258 260 262 263 264 265 266 267 267 268 269 271 272 274 275 277 278 279 280 281 283 284 285 286 287 288 289 289 290 290 291 291 291 292 293 294 295 296 296 297 297 297 297 298 299 301 302 304 305 306 306 307 309 309 308 306 303 299 297 296 296 299 300 298 294 291 298 311 320 327 333 336 337 338 339
246 248 249 251 252 254 255 256 257 259 261 263 265 267 268 269 269 269 269 270 271 272 274 275 276 277 278 279 280 281 283 284 285 286 286 286 287 287 288 288 289 289 290 291 291 292 293 294 294 295 295 295 296 297 298 300 301 303 304 304 305 306 307 306 304 302 298 295 294 294 294 296 298 297 293 291 297 308 317 324 331 334 336 337 338
246 248 250 252 254 256 257 258 260 262 263 265 266 267 268 268 269 269 271 272 273 274 274 275 276 276 277 278 280 281 282 283 284 284 284 284 285 286 286 287 288 289 290 290 291 291 292 293 293 294 294 295 296 297 298 300 301 302 303 303 303 304 304 302 300 297 294 291 290 291 291 294 296 296 293 291 295 305 314 322 328 332 334 336 337
247 249 251 253 255 257 258 259 260 262 263 264 265 265 266 267 268 270 272 273 273 274 274 275 276 278 279 279 280 281 281 282 282 283 283 284 284 285 286 287 288 289 290 290 291 293 293 294 294 295 296 296 297 297 298 300 301 302 303 303 302 302 301 299 296 293 290 289 289 290 292 294 296 296 294 291 293 302 311 320 326 329 332 335 337
249 251 252 254 256 257 259 260 261 262 263 264 265 265 267 268 270 271 272 273 273 274 275 276 277 278 279 280 281 282 282 282 282 283 284 285 286 287 288 289 290 291 291 293 294 295 295 296 296 297 297 298 298 298 300 302 303 304 305 302 300 298 297 296 294 291 289 289 290 292 294 297 297 298 297 293 292 299 308 317 323 326 329 333 337
252 253 255 256 257 259 260 261 263 264 265 266 267 268 269 270 270 271 271 272 274 275 276 277 278 279 280 281 282 283 283 284 285 286 287 288 289 290 291 291 292 292 293 294 295 295 295 296 296 297 297 299 300 301 303 304 305 306 305 301 296 294 294 296 293 289 288 290 292 294 297 301 302 303 302 297 294 297 306 314 321 324 327 332 336
254 255 256 257 258 259 260 261 263 264 265 267 268 269 269 270 270 271 272 273 274 276 277 278 279 280 281 282 282 282 283 285 287 288 290 291 291 292 292 293 292 292 292 293 294 294 294 295 296 296 297 300 302 302 303 304 305 304 301 296 292 291 294 294 289 287 289 290 291 295 301 306 309 309 307 302 296 296 304 313 319 322 325 331 335
253 254 255 256 257 258 259 260 261 262 263 264 266 267 268 269 270 271 273 274 276 277 279 280 281 281 281 281 282 282 283 285 287 289 290 291 292 293 294 294 294 294 293 293 293 294 294 295 296 297 299 301 301 301 303 304 304 300 293 289 289 290 291 290 286 287 289 290 291 297 302 307 311 312 310 307 299 296 302 312 319 321 324 330 334
250 251 252 253 255 256 257 258 258 258 259 260 262 264 266 268 270 271 273 275 276 277 278 279 280 281 281 282 283 284 286 287 288 289 290 291 292 293 294 295 295 295 295 294 293 293 294 295 297 298 299 299 299 300 302 304 305 299 288 285 287 288 287 286 285 287 288 289 292 297 301 308 312 313 312 309 302 298 304 313 320 321 324 329 333
248 249 250 252 253 254 255 256 257 257 258 260 262 264 267 269 271 272 273 274 275 275 276 277 278 280 282 284 285 287 288 288 290 290 291 291 292 292 293 293 293 293 293 292 292 292 293 295 298 298 297 298 298 300 303 306 306 300 290 286 285 283 282 283 283 283 285 287 291 296 302 308 312 313 314 310 305 304 309 316 320 321 324 329 331
250 250 251 252 253 255 257 258 259 261 262 263 265 266 268 270 271 273 274 275 275 276 277 279 281 283 285 287 289 290 290 291 292 292 291 291 292 293 294 294 294 294 293 293 293 292 292 294 296 297 297 298 299 302 307 309 304 294 288 287 284 280 280 282 280 279 282 285 289 296 302 307 312 315 316 314 310 310 315 319 320 321 324 327 327
253 254 255 255 256 257 259 261 262 264 265 266 267 268 270 271 272 274 276 277 279 280 282 284 286 288 289 290 291 292 293 294 294 293 293 294 295 296 297 297 297 295 295 294 292 291 292 293 295 297 298 299 301 305 310 311 303 295 289 285 282 279 280 284 283 280 280 284 289 296 301 305 311 316 317 316 316 317 319 320 321 322 324 325 325
254 256 257 258 259 260 261 263 264 265 266 267 268 269 271 272 273 275 277 279 281 283 285 287 288 289 290 291 292 293 295 296 296 295 296 297 298 299 299 298 297 295 293 292 290 289 289 289 291 297 300 300 302 305 307 305 304 303 299 292 287 283 283 285 286 282 282 285 289 293 297 302 308 313 314 315 317 318 318 319 320 322 323 323 323
256 257 259 260 262 263 264 265 265 266 266 267 268 269 271 273 274 275 276 279 281 283 285 287 288 289 290 291 292 293 294 295 295 295 295 297 298 298 298 298 297 295 294 292 290 288 285 284 288 296 298 296 297 300 300 298 296 297 298 295 291 288 286 288 289 287 285 287 288 290 295 299 305 308 309 311 315 315 315 317 319 319 320 321 321
258 259 261 262 263 265 266 266 267 268 268 268 269 271 273 274 274 275 277 278 279 281 282 284 286 288 288 289 290 290 291 292 292 292 293 296 297 296 297 297 296 294 294 293 291 289 285 279 277 283 290 293 295 296 296 295 292 291 292 291 290 287 285 286 289 289 288 287 286 287 290 295 300 302 302 306 310 311 311 314 316 316 317 318 319
260 261 262 263 264 265 266 267 268 269 270 271 273 274 275 275 276 277 278 279 279 279 281 282 283 285 286 286 287 287 288 289 289 289 291 294 294 294 295 295 295 294 293 291 289 287 282 271 267 282 294 295 294 293 292 290 289 289 289 289 288 286 283 281 282 284 286 286 285 285 286 290 295 298 299 302 305 305 307 310 312 312 312 314 315
261 262 263 264 266 266 267 268 269 270 272 273 275 275 275 276 277 278 279 279 280 280 281 281 282 283 283 284 286 286 287 288 288 289 290 292 292 292 292 293 293 292 290 287 285 283 278 271 274 287 295 294 292 291 289 287 286 286 285 285 285 285 286 285 282 281 281 281 281 283 284 285 289 295 298 300 300 300 302 305 306 307 308 309 311
261 262 264 265 267 268 269 270 271 272 273 274 274 275 276 276 277 278 278 280 280 281 282 282 283 284 284 286 287 288 289 290 290 290 291 291 292 291 291 291 291 289 287 285 282 279 276 274 277 284 289 289 288 287 283 280 280 280 281 281 281 283 287 288 285 284 284 283 281 280 279 279 283 290 294 296 297 296 298 300 302 303 304 305 307
261 263 264 266 267 269 270 271 272 273 274 274 274 275 276 277 278 279 279 280 281 282 283 284 284 285 287 288 289 291 291 291 291 291 291 291 292 292 291 290 290 288 286 284 281 279 278 276 275 277 280 281 283 283 280 278 277 279 280 282 283 284 285 284 285 287 289 290 288 282 276 275 279 284 290 295 297 296 295 296 298 300 301 303 305
262 264 265 267 268 269 270 272 273 274 275 276 276 277 278 278 279 280 280 281 281 282 283 284 285 286 287 289 290 291 292 293 293 292 292 292 291 292 291 291 289 287 284 281 280 280 280 277 274 275 277 278 280 282 282 280 279 279 281 284 285 283 282 284 287 288 288 291 291 283 275 276 279 281 288 296 297 293 292 293 295 298 299 300 303
263 265 266 267 269 270 272 273 274 275 276 277 278 278 279 279 280 280 281 281 282 283 283 284 285 287 288 289 290 291 292 293 294 294 293 292 291 291 291 291 288 285 282 279 278 278 278 277 276 277 279 279 276 275 277 277 277 278 283 286 285 282 285 289 289 286 284 287 287 278 274 279 282 284 290 294 292 289 290 292 293 295 297 299 301
264 265 266 268 269 271 272 273 275 276 276 277 278 278 279 279 280 280 281 282 282 283 284 285 286 287 289 290 291 291 291 292 293 293 293 291 291 292 293 292 288 284 281 279 278 277 277 276 276 278 281 281 276 270 268 270 274 280 286 288 285 284 288 293 291 287 285 284 278 274 277 281 282 285 290 291 287 286 289 291 292 293 295 298 300
265 266 267 269 270 271 272 274 274 275 276 277 277 278 278 279 279 280 281 281 282 283 284 286 287 289 290 291 291 291 292 292 292 292 291 290 291 293 294 293 289 283 279 279 279 279 278 277 275 276 279 280 277 269 262 261 266 275 281 286 287 288 290 293 291 288 285 280 275 278 282 281 279 283 289 290 288 288 289 292 294 294 294 297 299
265 266 268 269 270 272 272 273 274 274 275 276 276 277 278 279 279 280 280 281 282 284 285 287 288 290 291 292 292 292 292 292 291 290 290 290 291 292 293 292 287 280 275 276 277 278 279 279 278 278 281 280 276 269 264 261 262 268 277 284 286 285 287 290 286 276 270 273 277 281 282 280 278 283 288 291 291 291 292 294 295 294 294 296 298
264 265 267 268 269 270 271 272 273 274 275 276 276 277 278 279 279 280 281 282 283 285 286 287 289 290 291 292 291 292 292 292 291 291 290 290 290 291 292 290 284 275 272 272 273 275 277 278 280 283 286 282 273 268 267 262 259 263 273 276 273 271 276 281 277 265 260 268 276 278 279 280 281 284 288 291 292 293 294 295 296 295 294 296 298
264 265 266 268 269 270 271 272 273 274 275 275 276 277 278 279 280 281 282 283 285 286 287 288 289 289 290 290 291 291 291 292 292 292 292 292 291 291 291 288 279 271 269 270 270 271 274 277 280 284 286 280 273 270 270 264 256 255 261 264 263 262 265 268 267 261 260 267 275 278 278 279 281 283 286 289 291 292 293 294 294 294 294 295 297
265 266 267 268 269 270 271 273 274 275 275 276 277 278 279 280 281 282 283 284 285 286 287 287 287 288 288 288 289 291 292 293 293 292 292 293 292 291 290 285 274 267 268 269 268 270 273 276 280 283 282 278 274 271 273 270 258 250 251 252 252 253 253 253 254 255 259 267 275 276 273 274 278 281 283 286 289 290 291 292 292 293 294 295 297
265 266 267 268 270 271 272 273 274 275 276 277 278 279 279 280 281 282 283 285 285 286 285 285 286 287 287 286 287 290 293 294 294 293 293 293 293 290 287 280 270 266 268 268 268 271 274 276 278 279 278 278 274 269 271 275 264 250 246 245 243 242 242 244 248 254 261 268 273 273 271 273 276 279 282 286 289 290 290 290 290 291 293 294 296
264 265 267 268 269 270 272 273 274 275 276 277 277 277 277 278 280 281 283 283 284 283 283 284 285 286 286 286 288 292 294 295 295 294 294 294 292 288 282 274 266 265 266 267 269 274 275 275 279 281 280 280 275 268 265 266 258 249 247 246 242 239 240 243 249 256 262 265 269 272 273 273 276 279 284 287 288 288 288 288 288 289 291 293 294
264 265 266 267 268 269 270 272 273 274 275 276 276 276 276 277 278 280 281 281 281 281 282 283 285 286 287 289 291 293 295 296 295 295 295 294 291 285 278 269 262 261 263 264 268 273 274 276 283 285 282 281 279 269 258 247 238 240 248 249 243 240 241 246 252 257 259 261 266 271 272 273 277 281 284 285 286 287 287 286 286 287 290 291 292
264 265 266 266 267 268 269 270 272 273 274 274 275 275 276 277 278 279 281 281 281 281 282 284 286 288 290 292 293 294 295 296 296 296 297 295 290 283 275 265 257 258 260 261 263 267 270 273 276 276 275 276 274 260 242 231 227 234 244 250 248 244 245 248 252 255 258 262 266 269 271 274 277 280 281 283 285 285 285 285 285 287 288 290 290
263 264 265 266 267 268 269 269 270 271 272 272 273 273 274 276 277 278 280 280 281 281 282 284 287 289 291 292 293 295 296 296 297 298 298 295 289 283 274 262 254 256 259 257 256 260 264 264 260 257 264 273 268 250 238 237 239 241 242 244 247 248 249 251 255 258 261 264 266 268 270 273 275 277 279 281 282 282 282 283 284 285 287 288 288
264 265 266 267 267 268 268 268 269 270 270 270 271 272 273 274 276 277 278 279 280 281 282 284 287 289 290 292 293 295 296 297 298 299 297 293 287 282 274 260 252 253 255 253 253 256 258 252 244 242 257 272 267 255 252 257 261 259 249 242 247 256 260 261 263 264 264 265 268 270 272 274 275 277 278 279 279 279 280 281 282 284 285 285 285
265 266 266 266 266 267 267 268 269 270 270 271 271 272 273 274 275 276 278 279 281 282 284 286 287 289 289 291 293 295 296 297 299 298 295 291 286 282 273 260 252 251 251 250 251 251 247 242 237 232 229 229 234 244 247 244 245 251 253 252 257 266 271 270 268 267 267 269 271 273 274 275 276 277 277 277 278 278 279 280 281 282 282 282 283
266 267 267 266 266 266 267 268 270 271 271 272 272 273 274 275 276 277 279 281 282 284 286 287 288 289 289 291 293 295 297 298 299 297 293 289 285 281 273 262 254 250 248 249 248 241 233 233 233 226 217 215 223 231 231 225 224 235 248 256 262 267 271 270 269 268 268 269 271 273 274 274 275 275 275 276 277 277 278 278 279 279 280 281 282
265 265 265 265 265 266 267 268 270 271 272 273 274 275 276 277 278 279 281 282 284 285 286 287 288 289 290 291 294 296 298 298 298 296 293 290 287 282 274 264 256 252 249 249 247 236 224 223 226 224 217 212 210 211 212 213 218 229 243 253 260 265 267 267 266 267 267 268 269 271 272 272 273 273 274 275 275 276 276 276 277 277 278 280 281
265 265 264 264 264 265 266 267 268 269 270 272 273 275 276 277 279 280 281 282 283 285 285 286 287 288 290 291 294 297 298 298 297 296 294 291 289 286 279 269 260 255 252 251 249 240 226 219 221 223 220 212 206 205 209 215 223 232 241 248 256 262 264 264 265 266 267 267 267 268 269 270 271 272 272 273 274 274 275 275 275 276 278 279 282
264 264 264 264 265 265 265 266 267 268 269 271 272 274 276 277 278 280 281 282 283 283 284 285 285 286 288 290 293 296 298 298 297 296 294 292 289 287 283 277 268 260 256 254 252 247 234 223 219 220 218 213 210 212 218 225 231 235 240 247 255 261 262 262 263 265 265 266 266 267 267 268 269 270 271 272 272 273 273 274 275 276 277 279 282
261 262 263 264 265 266 267 267 268 269 271 272 273 274 276 277 278 279 281 282 282 282 283 283 284 285 287 289 292 294 296 297 297 296 295 292 289 286 283 280 274 268 262 258 255 252 245 233 224 219 216 215 216 220 226 232 236 239 243 249 257 261 262 262 263 263 264 265 266 266 267 268 268 269 270 270 271 271 272 273 274 276 277 279 281
Height
10973 10975 10977 10978 10980 10981 10982 10983 10984 10985 10986 10987 10988 10990 10990 10991 10991 10991 10991 10992 10992 10993 10993 10993 10994 10994 10993 10993 10992 10991 10990 10990 10990 10989 10989 10988 10988 10987 10986 10985 10983 10980 10978 10977 10976 10975 10974 10972 10970 10968 10966 10964 10962 10960 10958 10956 10954 10952 10950 10948 10946 10943 10941 10938 10936 10933 10930 10929 10927 10926 10925 10923 10921 10918 10916 10913 10911 10908 10905 10902 10900 10897 10894 10892 10888
10970 10972 10974 10975 10976 10978 10979 10980 10981 10981 10983 10984 10986 10987 10988 10988 10988 10988 10988 10989 10989 10990 10991 10991 10991 10991 10991 10990 10990 10989 10987 10986 10986 10986 10986 10985 10985 10984 10983 10982 10981 10978 10976 10974 10973 10972 10971 10970 10967 10965 10963 10962 10959 10957 10955 10953 10951 10949 10947 10945 10943 10940 10938 10936 10933 10930 10928 10926 10924 10922 10921 10920 10918 10916 10914 10911 10909 10907 10903 10900 10897 10895 10892 10889 10886
10968 10970 10971 10972 10973 10975 10975 10976 10977 10978 10979 10981 10982 10984 10985 10985 10985 10985 10985 10986 10986 10987 10988 10988 10988 10988 10988 10988 10987 10986 10985 10984 10983 10983 10983 10982 10982 10981 10981 10979 10978 10976 10974 10972 10970 10969 10969 10967 10965 10963 10961 10959 10957 10954 10952 10950 10948 10946 10944 10941 10939 10937 10935 10932 10930 10928 10925 10923 10921 10919 10918 10917 10915 10912 10910 10908 10906 10904 10901 10898 10894 10891 10889 10886 10883
10966 10968 10968 10969 10971 10972 10972 10972 10973 10974 10975 10977 10979 10980 10981 10981 10981 10982 10982 10982 10983 10983 10984 10984 10985 10985 10985 10985 10984 10983 10982 10981 10980 10979 10979 10979 10978 10978 10977 10976 10975 10973 10971 10969 10967 10966 10965 10964 10962 10960 10958 10956 10954 10952 10949 10947 10945 10943 10941 10938 10936 10934 10932 10929 10927 10924 10922 10920 10918 10915 10914 10913 10912 10909 10907 10905 10902 10900 10897 10894 10891 10888 10885 10882 10879
10964 10965 10966 10967 10968 10968 10968 10969 10970 10971 10973 10974 10975 10976 10977 10977 10978 10978 10978 10979 10979 10980 10981 10981 10981 10981 10981 10981 10980 10980 10979 10978 10977 10976 10976 10975 10975 10974 10973 10972 10971 10970 10968 10966 10964 10963 10962 10961 10959 10957 10955 10953 10951 10949 10946 10944 10942 10940 10938 10935 10933 10931 10929 10927 10924 10921 10919 10917 10914 10912 10910 10908 10907 10905 10903 10901 10899 10897 10894 10891 10887 10884 10881 10878 10875
10960 10961 10962 10964 10964 10964 10965 10966 10967 10968 10970 10972 10972 10973 10973 10974 10975 10975 10975 10975 10975 10976 10977 10977 10977 10977 10977 10977 10976 10976 10975 10974 10973 10972 10972 10972 10971 10970 10969 10968 10967 10966 10965 10963 10961 10959 10958 10957 10956 10953 10951 10949 10947 10945 10943 10940 10938 10936 10934 10932 10929 10927 10925 10923 10921 10918 10916 10914 10912 10909 10907 10904 10903 10901 10899 10897 10895 10893 10890 10887 10884 10880 10877 10874 10870
10955 10956 10958 10960 10960 10960 10961 10962 10964 10966 10968 10969 10969 10969 10970 10971 10972 10972 10972 10972 10972 10972 10973 10973 10973 10973 10973 10973 10973 10972 10971 10970 10969 10969 10969 10968 10967 10966 10965 10964 10963 10962 10961 10959 10957 10956 10954 10953 10952 10949 10947 10945 10943 10941 10939 10936 10934 10932 10930 10928 10925 10923 10921 10919 10917 10915 10912 10910 10908 10906 10904 10901 10899 10897 10895 10893 10891 10889 10886 10883 10880 10876 10873 10870 10866
10951 10952 10955 10956 10956 10956 10958 10960 10962 10964 10965 10965 10965 10966 10967 10968 10968 10969 10969 10969 10969 10969 10969 10969 10969 10969 10969 10969 10969 10968 10967 10966 10966 10965 10965 10964 10963 10962 10961 10960 10959 10958 10956 10955 10953 10951 10950 10949 10947 10945 10943 10941 10939 10937 10934 10932 10930 10928 10926 10924 10921 10919 10917 10915 10913 10911 10908 10906 10904 10902 10900 10898 10896 10894 10892 10890 10888 10886 10883 10881 10878 10874 10870 10866 10861
10947 10949 10951 10952 10952 10953 10956 10958 10959 10961 10961 10961 10962 10963 10964 10964 10965 10965 10966 10966 10966 10966 10966 10966 10965 10965 10965 10965 10965 10964 10963 10962 10961 10961 10960 10960 10959 10958 10957 10955 10954 10953 10952 10950 10948 10946 10945 10944 10943 10940 10938 10936 10934 10932 10929 10927 10925 10923 10921 10919 10917 10915 10913 10910 10908 10906 10904 10901 10899 10898 10896 10894 10892 10891 10889 10888 10885 10883 10880 10877 10875 10872 10869 10864 10859
10943 10944 10945 10946 10948 10950 10952 10954 10955 10956 10957 10957 10958 10959 10960 10960 10961 10961 10962 10962 10962 10962 10962 10962 10961 10961 10961 10961 10960 10959 10958 10957 10957 10956 10956 10955 10954 10953 10952 10951 10950 10948 10947 10945 10943 10941 10940 10939 10937 10935 10933 10931 10929 10927 10924 10921 10919 10918 10916 10914 10912 10910 10908 10905 10903 10901 10899 10897 10895 10893 10892 10890 10888 10887 10886 10885 10882 10880 10877 10874 10871 10869 10865 10862 10858
10939 10940 10941 10942 10944 10946 10948 10949 10950 10951 10952 10952 10953 10954 10955 10956 10957 10957 10957 10957 10958 10958 10958 10957 10957 10957 10957 10956 10955 10954 10953 10952 10952 10951 10951 10950 10949 10948 10947 10947 10945 10943 10941 10939 10937 10936 10934 10933 10932 10930 10928 10925 10923 10921 10919 10916 10914 10912 10910 10908 10906 10905 10902 10900 10898 10896 10894 10892 10890 10889 10887 10885 10884 10882 10881 10880 10879 10876 10874 10871 10868 10865 10862 10858 10855
10934 10935 10937 10939 10940 10941 10943 10945 10946 10946 10947 10948 10948 10950 10951 10951 10952 10952 10953 10953 10953 10953 10953 10952 10953 10953 10952 10952 10950 10949 10948 10947 10946 10946 10945 10945 10944 10943 10942 10941 10940 10938 10935 10933 10931 10930 10929 10927 10926 10925 10922 10919 10916 10915 10913 10911 10909 10906 10904 10903 10900 10899 10897 10895 10892 10890 10889 10886 10885 10884 10882 10880 10879 10878 10877 10876 10875 10872 10870 10867 10864 10861 10858 10854 10850
10929 10931 10933 10934 10935 10936 10939 10940 10941 10941 10942 10943 10944 10945 10946 10946 10947 10947 10948 10948 10948 10948 10948 10947 10948 10948 10947 10947 10945 10944 10943 10942 10941 10940 10939 10939 10939 10938 10936 10934 10933 10931 10929 10927 10925 10923 10922 10922 10920 10918 10916 10912 10910 10909 10907 10905 10904 10901 10898 10896 10894 10892 10892 10890 10887 10885 10884 10882 10880 10879 10877 10876 10875 10874 10872 10871 10870 10868 10865 10863 10860 10856 10853 10849 10845
10925 10926 10928 10928 10929 10931 10933 10935 10936 10936 10938 10938 10939 10940 10941 10941 10941 10941 10942 10943 10943 10942 10942 10942 10942 10942 10942 10941 10940 10939 10937 10936 10935 10934 10933 10933 10932 10932 10931 10928 10926 10924 10923 10921 10919 10917 10916 10915 10913 10911 10909 10906 10903 10902 10901 10899 10898 10896 10893 10890 10888 10886 10886 10884 10881 10880 10879 10877 10876 10874 10872 10871 10870 10869 10868 10866 10865 10863 10861 10858 10856 10852 10849 10845 10841
10920 10921 10922 10923 10924 10926 10928 10930 10931 10932 10933 10934 10934 10935 10934 10934 10934 10935 10936 10937 10937 10937 10936 10936 10936 10936 10936 10936 10935 10933 10932 10930 10929 10927 10926 10926 10925 10925 10924 10922 10920 10917 10916 10914 10912 10911 10909 10908 10906 10904 10902 10900 10896 10894 10895 10893 10891 10890 10888 10885 10882 10881 10880 10878 10876 10875 10874 10873 10872 10870 10868 10867 10866 10865 10863 10862 10860 10858 10856 10853 10851 10848 10845 10841 10837
10915 10916 10918 10919 10920 10922 10924 10925 10926 10927 10927 10928 10928 10928 10928 10928 10929 10930 10931 10931 10931 10930 10930 10930 10929 10929 10929 10929 10928 10927 10925 10923 10921 10919 10917 10918 10918 10917 10917 10916 10914 10911 10908 10907 10905 10904 10902 10900 10898 10896 10895 10894 10890 10887 10888 10888 10885 10883 10882 10879 10877 10876 10874 10872 10871 10871 10869 10868 10867 10866 10865 10863 10862 10860 10859 10857 10856 10854 10851 10849 10846 10843 10840 10837 10832
10910 10912 10913 10914 10916 10917 10918 10919 10920 10921 10922 10922 10921 10921 10922 10923 10925 10925 10925 10925 10924 10923 10923 10923 10923 10923 10921 10920 10920 10919 10917 10915 10914 10911 10909 10909 10910 10910 10910 10909 10908 10905 10902 10901 10899 10897 10895 10893 10891 10889 10888 10887 10884 10880 10881 10883 10881 10878 10877 10874 10871 10870 10869 10867 10866 10866 10865 10864 10863 10862 10861 10860 10858 10857 10855 10852 10851 10849 10847 10845 10842 10839 10836 10832 10826
10905 10906 10908 10910 10911 10912 10912 10913 10914 10915 10915 10915 10915 10915 10916 10917 10918 10918 10918 10918 10917 10917 10917 10916 10916 10916 10915 10914 10913 10911 10909 10908 10907 10904 10903 10902 10902 10903 10903 10902 10901 10899 10897 10896 10894 10891 10889 10886 10885 10883 10882 10881 10880 10876 10874 10876 10876 10875 10872 10868 10865 10864 10864 10863 10862 10861 10861 10861 10859 10858 10857 10856 10855 10853 10851 10848 10846 10844 10842 10840 10837 10834 10831 10827 10821
10900 10901 10902 10904 10904 10905 10906 10907 10908 10909 10909 10908 10908 10909 10909 10910 10910 10911 10911 10911 10911 10911 10911 10911 10910 10910 10910 10908 10907 10905 10904 10903 10902 10899 10897 10896 10895 10895 10895 10895 10893 10892 10891 10891 10889 10886 10883 10881 10878 10877 10876 10877 10875 10872 10869 10870 10871 10870 10868 10864 10861 10859 10860 10860 10858 10857 10857 10857 10856 10854 10853 10852 10850 10848 10846 10844 10842 10839 10837 10835 10832 10829 10826 10822 10816
10894 10895 10896 10897 10897 10898 10900 10901 10902 10903 10903 10903 10903 10903 10903 10903 10903 10904 10905 10905 10906 10905 10905 10905 10905 10904 10903 10902 10902 10900 10899 10898 10897 10894 10892 10891 10889 10888 10888 10887 10885 10883 10883 10884 10882 10880 10877 10876 10874 10871 10870 10871 10870 10867 10865 10864 10865 10865 10863 10859 10857 10855 10855 10856 10854 10853 10852 10852 10851 10850 10848 10847 10845 10843 10841 10839 10837 10835 10832 10830 10827 10824 10820 10816 10811
10888 10889 10890 10891 10892 10892 10894 10895 10896 10897 10897 10897 10897 10897 10897 10898 10898 10899 10899 10900 10900 10900 10900 10900 10899 10898 10897 10896 10896 10894 10893 10893 10893 10889 10887 10885 10884 10882 10882 10880 10878 10877 10877 10876 10875 10873 10871 10871 10870 10867 10864 10864 10863 10862 10861 10860 10860 10860 10858 10854 10852 10851 10851 10852 10850 10848 10848 10847 10846 10845 10843 10841 10840 10838 10836 10834 10832 10830 10828 10825 10822 10818 10814 10810 10806
10882 10883 10884 10885 10886 10887 10888 10889 10890 10891 10891 10892 10892 10892 10892 10893 10893 10894 10894 10895 10895 10895 10894 10894 10894 10892 10891 10891 10890 10888 10887 10888 10887 10884 10881 10880 10878 10877 10876 10874 10873 10872 10871 10869 10868 10867 10866 10866 10866 10863 10859 10857 10856 10856 10857 10856 10855 10854 10852 10849 10848 10847 10847 10848 10846 10843 10842 10842 10842 10841 10839 10837 10835 10833 10831 10829 10827 10825 10822 10820 10817 10813 10809 10804 10800
10877 10878 10879 10880 10881 10882 10882 10883 10884 10885 10886 10886 10887 10887 10888 10888 10888 10888 10889 10889 10889 10889 10888 10888 10888 10887 10886 10885 10884 10882 10881 10882 10882 10878 10874 10873 10872 10871 10869 10868 10866 10865 10864 10862 10860 10860 10860 10860 10860 10858 10855 10853 10851 10851 10851 10851 10849 10848 10847 10845 10844 10843 10843 10844 10842 10838 10837 10837 10836 10835 10834 10832 10830 10828 10826 10825 10822 10819 10817 10814 10811 10807 10803 10799 10795
10872 10873 10873 10875 10876 10877 10877 10878 10878 10879 10880 10881 10881 10881 10882 10883 10883 10883 10883 10883 10883 10882 10882 10882 10882 10881 10880 10879 10878 10876 10876 10876 10875 10872 10868 10865 10865 10864 10862 10861 10860 10857 10856 10854 10852 10851 10852 10853 10854 10854 10851 10848 10847 10846 10846 10846 10845 10843 10842 10841 10841 10839 10839 10839 10838 10834 10832 10832 10831 10829 10828 10826 10824 10822 10821 10819 10817 10814 10811 10808 10805 10800 10797 10794 10791
10867 10867 10868 10869 10870 10871 10872 10873 10873 10874 10874 10875 10876 10876 10877 10877 10878 10878 10877 10877 10877 10876 10876 10876 10876 10875 10874 10873 10872 10871 10870 10869 10868 10865 10862 10860 10858 10857 10855 10854 10853 10850 10849 10847 10844 10843 10843 10845 10848 10850 10847 10844 10843 10842 10842 10842 10841 10840 10839 10837 10837 10836 10834 10834 10834 10830 10827 10827 10826 10824 10822 10820 10818 10817 10815 10813 10811 10808 10806 10803 10800 10796 10792 10789 10785
10862 10862 10863 10864 10865 10866 10866 10867 10868 10868 10869 10870 10870 10871 10871 10872 10872 10872 10872 10872 10872 10871 10870 10870 10870 10869 10869 10867 10866 10865 10864 10863 10861 10858 10857 10855 10853 10851 10850 10848 10845 10843 10842 10840 10835 10833 10834 10836 10841 10845 10843 10840 10838 10837 10837 10837 10836 10835 10834 10833 10832 10832 10831 10830 10829 10826 10823 10822 10821 10819 10817 10815 10813 10812 10810 10808 10806 10803 10800 10798 10795 10792 10788 10785 10780
10856 10857 10858 10858 10859 10860 10860 10861 10861 10862 10862 10864 10865 10865 10866 10866 10865 10866 10866 10866 10866 10865 10865 10864 10864 10864 10863 10862 10861 10860 10858 10857 10854 10851 10850 10851 10849 10845 10843 10842 10839 10836 10835 10833 10828 10826 10826 10829 10834 10837 10837 10835 10833 10830 10828 10828 10828 10827 10827 10826 10825 10825 10825 10824 10824 10822 10819 10817 10816 10814 10811 10810 10808 10807 10805 10803 10801 10798 10796 10794 10791 10788 10784 10781 10777
10850 10851 10851 10852 10853 10854 10854 10854 10855 10855 10856 10857 10859 10860 10859 10859 10859 10860 10860 10860 10859 10859 10859 10859 10858 10858 10858 10856 10855 10854 10853 10851 10848 10845 10844 10845 10844 10840 10838 10836 10833 10831 10829 10826 10822 10820 10820 10821 10824 10827 10827 10824 10822 10820 10817 10816 10816 10817 10818 10818 10817 10816 10816 10816 10817 10817 10814 10811 10810 10809 10806 10804 10803 10802 10799 10797 10796 10794 10792 10789 10787 10784 10780 10777 10773
10843 10844 10845 10846 10846 10847 10848 10848 10848 10849 10850 10852 10853 10853 10852 10852 10852 10853 10853 10852 10852 10852 10852 10852 10852 10852 10851 10850 10849 10848 10846 10844 10841 10838 10837 10837 10837 10835 10833 10831 10829 10827 10824 10820 10816 10815 10814 10814 10816 10817 10815 10812 10810 10809 10808 10804 10803 10806 10809 10809 10808 10808 10808 10808 10808 10809 10808 10805 10803 10803 10801 10798 10797 10796 10794 10793 10791 10789 10787 10784 10782 10779 10776 10773 10769
10837 10837 10838 10839 10839 10840 10841 10841 10841 10842 10844 10846 10846 10845 10845 10845 10845 10845 10845 10845 10845 10845 10844 10844 10843 10843 10842 10841 10840 10840 10839 10836 10833 10830 10829 10828 10828 10828 10827 10826 10824 10822 10818 10812 10809 10807 10806 10806 10807 10808 10808 10805 10801 10799 10797 10794 10791 10793 10798 10800 10800 10801 10801 10800 10799 10800 10800 10798 10797 10796 10794 10792 10792 10791 10789 10788 10786 10784 10781 10778 10776 10774 10771 10768 10765
10830 10830 10831 10831 10832 10833 10833 10834 10834 10835 10836 10838 10838 10838 10838 10837 10837 10837 10837 10837 10837 10837 10836 10835 10835 10834 10834 10833 10832 10831 10830 10829 10826 10823 10821 10819 10819 10819 10819 10819 10817 10816 10811 10805 10801 10799 10796 10792 10794 10799 10800 10796 10790 10787 10787 10786 10784 10785 10787 10790 10792 10794 10794 10793 10791 10791 10792 10791 10789 10787 10786 10786 10786 10785 10783 10781 10779 10778 10775 10773 10770 10767 10765 10763 10760
10823 10823 10823 10824 10824 10825 10826 10826 10826 10827 10827 10828 10829 10830 10830 10830 10829 10828 10828 10828 10828 10828 10828 10827 10826 10826 10826 10826 10824 10823 10821 10820 10818 10816 10814 10812 10810 10810 10810 10810 10808 10806 10803 10798 10794 10793 10787 10780 10782 10788 10789 10786 10783 10782 10781 10780 10779 10777 10779 10782 10785 10786 10787 10788 10786 10785 10784 10783 10781 10779 10779 10779 10779 10778 10776 10774 10773 10771 10770 10767 10764 10761 10759 10757 10754
10815 10816 10816 10816 10817 10817 10818 10818 10819 10819 10819 10819 10820 10820 10821 10821 10821 10820 10819 10819 10819 10819 10819 10818 10818 10818 10818 10818 10816 10815 10813 10811 10810 10808 10806 10804 10803 10802 10801 10801 10797 10793 10790 10788 10787 10785 10780 10774 10774 10779 10780 10778 10778 10778 10777 10775 10773 10772 10772 10774 10776 10778 10781 10781 10780 10779 10777 10775 10774 10773 10773 10773 10772 10771 10769 10768 10766 10765 10763 10761 10758 10754 10752 10751 10749
10807 10807 10808 10808 10809 10809 10810 10810 10810 10810 10810 10811 10811 10811 10811 10812 10811 10811 10810 10810 10810 10810 10810 10810 10810 10810 10810 10809 10808 10806 10804 10803 10801 10800 10797 10795 10794 10793 10793 10792 10788 10781 10778 10778 10777 10775 10772 10767 10766 10772 10775 10773 10772 10773 10773 10772 10770 10769 10768 10767 10767 10769 10772 10773 10772 10771 10769 10768 10767 10768 10767 10766 10766 10764 10763 10762 10761 10759 10757 10756 10753 10748 10746 10746 10744
10797 10798 10799 10799 10800 10801 10801 10801 10802 10802 10802 10802 10802 10802 10802 10802 10802 10802 10801 10801 10801 10802 10802 10801 10801 10801 10801 10800 10798 10796 10795 10794 10792 10791 10789 10787 10786 10784 10783 10781 10778 10773 10770 10768 10766 10764 10762 10759 10758 10763 10769 10769 10767 10767 10767 10767 10767 10766 10765 10763 10761 10761 10764 10766 10765 10764 10763 10762 10761 10762 10761 10760 10759 10758 10757 10756 10755 10753 10751 10750 10748 10744 10741 10740 10739
10789 10789 10790 10791 10791 10792 10792 10792 10792 10792 10793 10793 10793 10793 10793 10793 10793 10792 10792 10791 10792 10793 10794 10793 10793 10793 10793 10791 10789 10786 10786 10785 10783 10782 10781 10779 10777 10775 10773 10771 10768 10765 10763 10761 10757 10755 10755 10752 10749 10753 10760 10763 10761 10761 10761 10760 10761 10762 10759 10756 10754 10753 10754 10757 10759 10759 10758 10757 10757 10756 10755 10754 10753 10752 10750 10749 10748 10747 10745 10743 10742 10739 10736 10734 10733
10781 10782 10782 10782 10783 10783 10783 10783 10783 10783 10783 10784 10784 10784 10784 10783 10783 10783 10782 10783 10783 10784 10785 10784 10784 10784 10783 10782 10780 10779 10778 10777 10775 10773 10772 10771 10768 10765 10763 10761 10759 10757 10756 10754 10752 10750 10748 10745 10741 10744 10752 10755 10754 10754 10754 10753 10754 10755 10754 10752 10752 10752 10750 10751 10754 10755 10754 10752 10751 10750 10748 10748 10747 10745 10743 10742 10741 10740 10738 10737 10735 10733 10731 10729 10728
10772 10773 10773 10773 10773 10773 10773 10773 10774 10774 10774 10774 10774 10774 10774 10774 10774 10773 10773 10774 10774 10775 10775 10775 10774 10774 10774 10773 10772 10771 10770 10769 10767 10765 10763 10761 10758 10755 10752 10750 10750 10749 10748 10748 10746 10743 10741 10739 10737 10740 10744 10746 10745 10745 10745 10744 10745 10748 10750 10750 10752 10753 10753 10751 10751 10751 10749 10746 10745 10744 10742 10740 10740 10738 10737 10736 10735 10734 10732 10730 10729 10727 10725 10724 10722
10762 10762 10762 10762 10762 10762 10763 10763 10763 10763 10763 10763 10764 10764 10764 10764 10764 10763 10763 10764 10765 10766 10766 10765 10765 10765 10765 10764 10763 10762 10761 10760 10758 10756 10754 10751 10748 10745 10743 10741 10741 10741 10741 10740 10738 10735 10735 10735 10735 10735 10736 10737 10737 10736 10735 10735 10737 10742 10746 10748 10749 10751 10751 10748 10746 10745 10743 10741 10739 10737 10735 10734 10733 10732 10731 10731 10730 10728 10725 10724 10723 10721 10719 10718 10715
10751 10752 10752 10752 10752 10752 10752 10753 10752 10752 10752 10752 10753 10754 10754 10754 10754 10754 10754 10755 10756 10757 10757 10757 10757 10756 10756 10756 10755 10753 10753 10751 10749 10746 10745 10742 10739 10736 10734 10732 10732 10734 10734 10733 10729 10727 10728 10731 10731 10729 10729 10729 10729 10727 10728 10729 10731 10735 10740 10744 10746 10748 10746 10742 10740 10740 10738 10735 10732 10730 10728 10728 10727 10726 10726 10725 10724 10721 10718 10717 10716 10715 10713 10711 10708
10742 10742 10742 10742 10742 10742 10742 10742 10742 10741 10742 10742 10743 10743 10744 10744 10744 10745 10745 10745 10746 10747 10748 10748 10748 10747 10746 10746 10746 10745 10744 10743 10740 10737 10735 10733 10730 10728 10726 10725 10724 10725 10727 10726 10722 10720 10722 10725 10725 10723 10722 10723 10721 10719 10721 10723 10726 10730 10735 10739 10741 10740 10737 10735 10735 10735 10733 10729 10725 10722 10722 10722 10721 10720 10719 10718 10716 10714 10712 10710 10710 10709 10707 10704 10701
10733 10733 10732 10732 10732 10732 10732 10732 10732 10732 10732 10732 10732 10733 10734 10734 10734 10735 10736 10736 10737 10738 10739 10739 10739 10738 10737 10737 10736 10736 10735 10733 10730 10727 10725 10722 10720 10719 10718 10717 10717 10717 10717 10718 10718 10716 10716 10718 10718 10716 10714 10714 10713 10713 10714 10717 10720 10725 10728 10730 10731 10732 10731 10729 10729 10728 10725 10722 10719 10717 10716 10716 10715 10714 10712 10710 10709 10708 10705 10703 10702 10701 10700 10697 10694
10724 10723 10721 10721 10721 10722 10723 10723 10722 10722 10722 10722 10722 10722 10723 10723 10724 10725 10725 10726 10727 10728 10728 10729 10729 10729 10729 10728 10726 10726 10725 10723 10719 10717 10715 10712 10711 10710 10709 10709 10709 10708 10708 10710 10713 10712 10711 10713 10714 10712 10710 10709 10709 10708 10709 10711 10715 10718 10720 10720 10722 10724 10724 10722 10720 10718 10717 10716 10714 10711 10710 10710 10708 10706 10704 10703 10702 10701 10699 10696 10694 10694 10692 10690 10687
10713 10711 10710 10710 10711 10712 10713 10713 10713 10713 10713 10713 10713 10713 10713 10713 10713 10714 10715 10715 10716 10717 10718 10718 10719 10720 10720 10718 10715 10715 10714 10712 10710 10708 10705 10702 10701 10701 10701 10700 10701 10700 10700 10702 10706 10707 10707 10707 10708 10707 10706 10705 10705 10705 10706 10707 10709 10711 10712 10712 10713 10714 10714 10712 10711 10710 10709 10708 10706 10704 10704 10702 10700 10699 10697 10695 10694 10694 10692 10688 10687 10686 10684 10682 10679
10702 10701 10700 10699 10700 10701 10702 10702 10702 10703 10703 10703 10703 10703 10703 10703 10703 10704 10704 10705 10705 10706 10707 10708 10709 10709 10709 10707 10705 10704 10704 10702 10700 10698 10696 10693 10692 10692 10691 10691 10692 10692 10693 10694 10697 10700 10700 10701 10701 10700 10699 10699 10699 10700 10702 10705 10705 10705 10705 10705 10705 10704 10704 10704 10703 10702 10700 10699 10698 10697 10696 10695 10693 10692 10690 10688 10687 10686 10684 10681 10679 10678 10676 10674 10672
10691 10691 10690 10690 10690 10690 10691 10691 10692 10692 10693 10693 10693 10692 10692 10693 10693 10693 10693 10693 10694 10694 10696 10697 10697 10697 10698 10697 10695 10694 10694 10693 10690 10689 10687 10685 10683 10682 10681 10681 10683 10684 10685 10686 10689 10692 10693 10693 10692 10690 10690 10691 10693 10695 10699 10702 10701 10698 10696 10696 10696 10695 10695 10694 10694 10693 10692 10691 10690 10689 10688 10687 10686 10684 10682 10680 10679 10678 10676 10673 10672 10670 10668 10666 10664
10680 10680 10680 10680 10680 10680 10680 10681 10681 10682 10682 10682 10682 10682 10681 10681 10682 10682 10682 10682 10682 10683 10683 10684 10684 10684 10685 10685 10684 10684 10684 10684 10682 10680 10678 10676 10675 10673 10672 10671 10674 10676 10677 10678 10681 10684 10685 10684 10683 10681 10681 10683 10685 10688 10692 10694 10693 10689 10687 10687 10686 10685 10685 10686 10685 10685 10684 10683 10682 10682 10681 10679 10677 10675 10674 10672 10671 10670 10668 10666 10664 10662 10660 10658 10656
10669 10670 10670 10670 10670 10670 10670 10671 10671 10671 10671 10671 10671 10670 10670 10670 10670 10670 10670 10671 10671 10671 10672 10672 10672 10672 10672 10673 10673 10673 10674 10674 10674 10672 10669 10667 10666 10664 10663 10663 10665 10667 10668 10669 10671 10675 10677 10676 10674 10673 10673 10674 10676 10677 10679 10680 10680 10679 10678 10678 10677 10677 10677 10677 10677 10676 10676 10675 10674 10673 10672 10670 10668 10667 10665 10664 10663 10661 10660 10658 10655 10653 10652 10650 10648
10657 10658 10659 10660 10660 10660 10661 10661 10660 10660 10660 10660 10659 10659 10659 10658 10659 10659 10659 10660 10661 10661 10661 10661 10661 10660 10660 10661 10661 10661 10662 10664 10665 10664 10661 10659 10657 10656 10655 10656 10656 10657 10658 10659 10661 10665 10668 10668 10667 10667 10667 10667 10667 10666 10665 10665 10666 10667 10668 10668 10668 10668 10668 10668 10667 10667 10667 10667 10666 10664 10663 10661 10660 10658 10657 10656 10654 10652 10650 10649 10647 10645 10644 10642 10639
10645 10646 10647 10648 10649 10649 10650 10650 10649 10649 10649 10648 10648 10648 10648 10647 10647 10648 10649 10649 10650 10650 10650 10651 10650 10650 10650 10650 10650 10650 10650 10652 10655 10655 10652 10651 10650 10648 10647 10647 10647 10648 10649 10650 10652 10655 10658 10660 10659 10659 10660 10659 10658 10656 10655 10655 10656 10657 10657 10658 10658 10659 10659 10659 10659 10659 10658 10658 10657 10655 10654 10652 10651 10649 10648 10647 10646 10644 10641 10640 10638 10637 10636 10634 10631
10636 10636 10636 10637 10637 10638 10638 10638 10638 10638 10637 10636 10636 10636 10636 10636 10636 10637 10637 10638 10639 10639 10640 10640 10640 10640 10640 10639 10639 10639 10639 10641 10643 10644 10643 10642 10641 10640 10639 10638 10638 10639 10640 10641 10642 10643 10646 10649 10650 10650 10651 10650 10649 10648 10647 10646 10646 10647 10647 10649 10650 10650 10650 10650 10649 10649 10648 10648 10647 10646 10645 10643 10642 10640 10638 10637 10636 10634 10632 10630 10629 10628 10627 10625 10622